Year,Month,Day,Hour,Minute,Value (Times are PST for temperature in C)
2015,02,15,09,14,5.70
2015,02,15,09,15,5.70
2015,02,15,09,16,5.70
2015,02,15,09,17,5.80
2015,02,15,09,18,5.80
2015,02,15,09,19,5.80
2015,02,15,09,20,5.80
2015,02,15,09,21,5.90
2015,02,15,09,22,5.90
2015,02,15,09,23,5.90
2015,02,15,09,24,5.90
2015,02,15,09,25,6.00
2015,02,15,09,26,6.00
2015,02,15,09,27,6.00
2015,02,15,09,28,6.00
2015,02,15,09,29,6.00
2015,02,15,09,30,6.10
2015,02,15,09,31,6.10
2015,02,15,09,32,6.10
2015,02,15,09,33,6.10
2015,02,15,09,34,6.10
2015,02,15,09,35,6.10
2015,02,15,09,36,6.10
2015,02,15,09,37,6.10
2015,02,15,09,38,6.10
2015,02,15,09,39,6.10
2015,02,15,09,40,6.10
2015,02,15,09,41,6.00
2015,02,15,09,42,6.00
2015,02,15,09,43,6.00
2015,02,15,09,44,6.00
2015,02,15,09,45,6.00
2015,02,15,09,46,6.00
2015,02,15,09,47,6.00
2015,02,15,09,48,6.00
2015,02,15,09,49,6.00
2015,02,15,09,50,6.00
2015,02,15,09,51,5.90
2015,02,15,09,52,5.90
2015,02,15,09,53,6.00
2015,02,15,09,54,6.00
2015,02,15,09,55,6.00
2015,02,15,09,56,6.10
2015,02,15,09,57,6.10
2015,02,15,09,58,6.10
2015,02,15,09,59,6.10
2015,02,15,10,00,6.20
2015,02,15,10,01,6.20
2015,02,15,10,02,6.30
2015,02,15,10,03,6.30
2015,02,15,10,04,6.40
2015,02,15,10,05,6.40
2015,02,15,10,06,6.50
2015,02,15,10,07,6.50
2015,02,15,10,08,6.50
2015,02,15,10,09,6.60
2015,02,15,10,10,6.60
2015,02,15,10,11,6.70
2015,02,15,10,12,6.70
2015,02,15,10,13,6.80
2015,02,15,10,14,6.80
2015,02,15,10,15,6.90
2015,02,15,10,16,6.90
2015,02,15,10,17,6.90
2015,02,15,10,18,7.00
2015,02,15,10,19,7.00
2015,02,15,10,20,7.00
2015,02,15,10,21,7.00
2015,02,15,10,22,7.10
2015,02,15,10,23,7.10
2015,02,15,10,24,7.10
2015,02,15,10,25,7.20
2015,02,15,10,26,7.20
2015,02,15,10,27,7.30
2015,02,15,10,28,7.30
2015,02,15,10,29,7.40
2015,02,15,10,30,7.40
2015,02,15,10,31,7.40
2015,02,15,10,32,7.50
2015,02,15,10,33,7.50
2015,02,15,10,34,7.60
2015,02,15,10,35,7.60
2015,02,15,10,36,7.60
2015,02,15,10,37,7.60
2015,02,15,10,38,7.60
2015,02,15,10,39,7.60
2015,02,15,10,40,7.60
2015,02,15,10,41,7.60
2015,02,15,10,42,7.60
2015,02,15,10,43,7.60
2015,02,15,10,44,7.60
2015,02,15,10,45,7.60
2015,02,15,10,46,7.60
2015,02,15,10,47,7.60
2015,02,15,10,48,7.70
2015,02,15,10,49,7.70
2015,02,15,10,50,7.70
2015,02,15,10,51,7.70
2015,02,15,10,52,7.70
2015,02,15,10,53,7.70
2015,02,15,10,54,7.70
2015,02,15,10,55,7.70
2015,02,15,10,56,7.70
2015,02,15,10,57,7.70
2015,02,15,10,58,7.70
2015,02,15,10,59,7.70
2015,02,15,11,00,7.70
2015,02,15,11,01,7.70
2015,02,15,11,02,7.70
2015,02,15,11,03,7.70
2015,02,15,11,04,7.70
2015,02,15,11,05,7.70
2015,02,15,11,06,7.70
2015,02,15,11,07,7.70
2015,02,15,11,08,7.70
2015,02,15,11,09,7.70
2015,02,15,11,10,7.70
2015,02,15,11,11,7.70
2015,02,15,11,12,7.70
2015,02,15,11,13,7.70
2015,02,15,11,14,7.70
2015,02,15,11,15,7.70
2015,02,15,11,16,7.70
2015,02,15,11,17,7.70
2015,02,15,11,18,7.70
2015,02,15,11,19,7.70
2015,02,15,11,20,7.80
2015,02,15,11,21,7.80
2015,02,15,11,22,7.80
2015,02,15,11,23,7.90
2015,02,15,11,24,7.90
2015,02,15,11,25,8.00
2015,02,15,11,26,8.00
2015,02,15,11,27,8.00
2015,02,15,11,28,8.10
2015,02,15,11,29,8.10
2015,02,15,11,30,8.10
2015,02,15,11,31,8.10
2015,02,15,11,32,8.20
2015,02,15,11,33,8.20
2015,02,15,11,34,8.20
2015,02,15,11,35,8.20
2015,02,15,11,36,8.10
2015,02,15,11,37,8.10
2015,02,15,11,38,8.10
2015,02,15,11,39,8.10
2015,02,15,11,40,8.10
2015,02,15,11,41,8.10
2015,02,15,11,42,8.10
2015,02,15,11,43,8.10
2015,02,15,11,44,8.10
2015,02,15,11,45,8.10
2015,02,15,11,46,8.10
2015,02,15,11,47,8.20
2015,02,15,11,48,8.20
2015,02,15,11,49,8.20
2015,02,15,11,50,8.30
2015,02,15,11,51,8.30
2015,02,15,11,52,8.30
2015,02,15,11,53,8.30
2015,02,15,11,54,8.30
2015,02,15,11,55,8.30
2015,02,15,11,56,8.30
2015,02,15,11,57,8.30
2015,02,15,11,58,8.30
2015,02,15,11,59,8.30
2015,02,15,12,00,8.30
2015,02,15,12,01,8.30
2015,02,15,12,02,8.20
2015,02,15,12,03,8.20
2015,02,15,12,04,8.30
2015,02,15,12,05,8.30
2015,02,15,12,06,8.30
2015,02,15,12,07,8.30
2015,02,15,12,08,8.30
2015,02,15,12,09,8.30
2015,02,15,12,10,8.40
2015,02,15,12,11,8.40
2015,02,15,12,12,8.40
2015,02,15,12,13,8.40
2015,02,15,12,14,8.40
2015,02,15,12,15,8.40
2015,02,15,12,16,8.40
2015,02,15,12,17,8.40
2015,02,15,12,18,8.40
2015,02,15,12,19,8.40
2015,02,15,12,20,8.40
2015,02,15,12,21,8.40
2015,02,15,12,22,8.40
2015,02,15,12,23,8.40
2015,02,15,12,24,8.50
2015,02,15,12,25,8.50
2015,02,15,12,26,8.60
2015,02,15,12,27,8.60
2015,02,15,12,28,8.60
2015,02,15,12,29,8.60
2015,02,15,12,30,8.60
2015,02,15,12,31,8.70
2015,02,15,12,32,8.70
2015,02,15,12,33,8.70
2015,02,15,12,34,8.70
2015,02,15,12,35,8.70
2015,02,15,12,36,8.70
2015,02,15,12,37,8.70
2015,02,15,12,38,8.80
2015,02,15,12,39,8.90
2015,02,15,12,40,8.90
2015,02,15,12,41,8.90
2015,02,15,12,42,8.90
2015,02,15,12,43,8.90
2015,02,15,12,44,9.00
2015,02,15,12,45,9.00
2015,02,15,12,46,9.10
2015,02,15,12,47,9.10
2015,02,15,12,48,9.10
2015,02,15,12,49,9.20
2015,02,15,12,50,9.20
2015,02,15,12,51,9.30
2015,02,15,12,52,9.40
2015,02,15,12,53,9.40
2015,02,15,12,54,9.50
2015,02,15,12,55,9.50
2015,02,15,12,56,9.50
2015,02,15,12,57,9.50
2015,02,15,12,58,9.50
2015,02,15,12,59,9.50
2015,02,15,13,00,9.50
2015,02,15,13,01,9.50
2015,02,15,13,02,9.50
2015,02,15,13,03,9.50
2015,02,15,13,04,9.50
2015,02,15,13,05,9.50
2015,02,15,13,06,9.60
2015,02,15,13,07,9.60
2015,02,15,13,08,9.60
2015,02,15,13,09,9.60
2015,02,15,13,10,9.60
2015,02,15,13,11,9.60
2015,02,15,13,12,9.60
2015,02,15,13,13,9.70
2015,02,15,13,14,9.70
2015,02,15,13,15,9.80
2015,02,15,13,16,9.80
2015,02,15,13,17,9.90
2015,02,15,13,18,10.00
2015,02,15,13,19,10.10
2015,02,15,13,20,10.20
2015,02,15,13,21,10.20
2015,02,15,13,22,10.20
2015,02,15,13,23,10.20
2015,02,15,13,24,10.30
2015,02,15,13,25,10.30
2015,02,15,13,26,10.40
2015,02,15,13,27,10.40
2015,02,15,13,28,10.50
2015,02,15,13,29,10.50
2015,02,15,13,30,10.60
2015,02,15,13,31,10.60
2015,02,15,13,32,10.70
2015,02,15,13,33,10.70
2015,02,15,13,34,10.70
2015,02,15,13,35,10.70
2015,02,15,13,36,10.70
2015,02,15,13,37,10.70
2015,02,15,13,38,10.70
2015,02,15,13,39,10.70
2015,02,15,13,40,10.70
2015,02,15,13,41,10.80
2015,02,15,13,42,10.80
2015,02,15,13,43,10.80
2015,02,15,13,44,10.80
2015,02,15,13,45,10.80
2015,02,15,13,46,10.80
2015,02,15,13,47,10.80
2015,02,15,13,48,10.90
2015,02,15,13,49,10.90
2015,02,15,13,50,10.90
2015,02,15,13,51,10.90
2015,02,15,13,52,10.80
2015,02,15,13,53,10.80
2015,02,15,13,54,10.80
2015,02,15,13,55,10.70
2015,02,15,13,56,10.70
2015,02,15,13,57,10.70
2015,02,15,13,58,10.70
2015,02,15,13,59,10.70
2015,02,15,14,00,10.80
2015,02,15,14,01,10.80
2015,02,15,14,02,10.80
2015,02,15,14,03,10.80
2015,02,15,14,04,10.80
2015,02,15,14,05,10.80
2015,02,15,14,06,10.70
2015,02,15,14,07,10.70
2015,02,15,14,08,10.70
2015,02,15,14,09,10.80
2015,02,15,14,10,10.80
2015,02,15,14,11,10.80
2015,02,15,14,12,10.80
2015,02,15,14,13,10.80
2015,02,15,14,14,10.80
2015,02,15,14,15,10.80
2015,02,15,14,16,10.90
2015,02,15,14,17,10.90
2015,02,15,14,18,10.90
2015,02,15,14,19,10.90
2015,02,15,14,20,11.00
2015,02,15,14,21,11.10
2015,02,15,14,22,11.10
2015,02,15,14,23,11.20
2015,02,15,14,24,11.30
2015,02,15,14,25,11.30
2015,02,15,14,26,11.30
2015,02,15,14,27,11.20
2015,02,15,14,28,11.30
2015,02,15,14,29,11.30
2015,02,15,14,30,11.20
2015,02,15,14,31,11.20
2015,02,15,14,32,11.20
2015,02,15,14,33,11.20
2015,02,15,14,34,11.20
2015,02,15,14,35,11.20
2015,02,15,14,36,11.20
2015,02,15,14,37,11.20
2015,02,15,14,38,11.20
2015,02,15,14,39,11.20
2015,02,15,14,40,11.20
2015,02,15,14,41,11.10
2015,02,15,14,42,11.10
2015,02,15,14,43,11.10
2015,02,15,14,44,11.10
2015,02,15,14,45,11.10
2015,02,15,14,46,11.00
2015,02,15,14,47,11.00
2015,02,15,14,48,10.90
2015,02,15,14,49,10.90
2015,02,15,14,50,10.90
2015,02,15,14,51,10.90
2015,02,15,14,52,10.90
2015,02,15,14,53,10.90
2015,02,15,14,54,10.90
2015,02,15,14,55,10.90
2015,02,15,14,56,10.90
2015,02,15,14,57,10.90
2015,02,15,14,58,10.90
2015,02,15,14,59,10.90
2015,02,15,15,00,10.90
2015,02,15,15,01,10.90
2015,02,15,15,02,10.90
2015,02,15,15,03,10.90
2015,02,15,15,04,10.90
2015,02,15,15,05,10.90
2015,02,15,15,06,10.90
2015,02,15,15,07,10.90
2015,02,15,15,08,10.90
2015,02,15,15,09,10.90
2015,02,15,15,10,10.90
2015,02,15,15,11,10.90
2015,02,15,15,12,10.90
2015,02,15,15,13,10.90
2015,02,15,15,14,10.90
2015,02,15,15,15,10.90
2015,02,15,15,16,10.90
2015,02,15,15,17,10.80
2015,02,15,15,18,10.80
2015,02,15,15,19,10.80
2015,02,15,15,20,10.80
2015,02,15,15,21,10.80
2015,02,15,15,22,10.80
2015,02,15,15,23,10.80
2015,02,15,15,24,10.80
2015,02,15,15,25,10.80
2015,02,15,15,26,10.80
2015,02,15,15,27,10.80
2015,02,15,15,28,10.70
2015,02,15,15,29,10.70
2015,02,15,15,30,10.70
2015,02,15,15,31,10.70
2015,02,15,15,32,10.70
2015,02,15,15,33,10.70
2015,02,15,15,34,10.60
2015,02,15,15,35,10.60
2015,02,15,15,36,10.60
2015,02,15,15,37,10.60
2015,02,15,15,38,10.60
2015,02,15,15,39,10.60
2015,02,15,15,40,10.60
2015,02,15,15,41,10.60
2015,02,15,15,42,10.60
2015,02,15,15,43,10.60
2015,02,15,15,44,10.60
2015,02,15,15,45,10.60
2015,02,15,15,46,10.60
2015,02,15,15,47,10.60
2015,02,15,15,48,10.60
2015,02,15,15,49,10.60
2015,02,15,15,50,10.60
2015,02,15,15,51,10.60
2015,02,15,15,52,10.60
2015,02,15,15,53,10.60
2015,02,15,15,54,10.60
2015,02,15,15,55,10.60
2015,02,15,15,56,10.70
2015,02,15,15,57,10.70
2015,02,15,15,58,10.70
2015,02,15,15,59,10.70
2015,02,15,16,00,10.70
2015,02,15,16,01,10.70
2015,02,15,16,02,10.70
2015,02,15,16,03,10.70
2015,02,15,16,04,10.70
2015,02,15,16,05,10.70
2015,02,15,16,06,10.70
2015,02,15,16,07,10.70
2015,02,15,16,08,10.80
2015,02,15,16,09,10.80
2015,02,15,16,10,10.80
2015,02,15,16,11,10.80
2015,02,15,16,12,10.80
2015,02,15,16,13,10.70
2015,02,15,16,14,10.70
2015,02,15,16,15,10.70
2015,02,15,16,16,10.70
2015,02,15,16,17,10.70
2015,02,15,16,18,10.70
2015,02,15,16,19,10.70
2015,02,15,16,20,10.70
2015,02,15,16,21,10.70
2015,02,15,16,22,10.70
2015,02,15,16,23,10.70
2015,02,15,16,24,10.70
2015,02,15,16,25,10.70
2015,02,15,16,26,10.70
2015,02,15,16,27,10.70
2015,02,15,16,28,10.70
2015,02,15,16,29,10.70
2015,02,15,16,30,10.70
2015,02,15,16,31,10.70
2015,02,15,16,32,10.70
2015,02,15,16,33,10.70
2015,02,15,16,34,10.70
2015,02,15,16,35,10.70
2015,02,15,16,36,10.70
2015,02,15,16,37,10.70
2015,02,15,16,38,10.70
2015,02,15,16,39,10.60
2015,02,15,16,40,10.60
2015,02,15,16,41,10.60
2015,02,15,16,42,10.60
2015,02,15,16,43,10.60
2015,02,15,16,44,10.60
2015,02,15,16,45,10.60
2015,02,15,16,46,10.60
2015,02,15,16,47,10.60
2015,02,15,16,48,10.50
2015,02,15,16,49,10.50
2015,02,15,16,50,10.50
2015,02,15,16,51,10.50
2015,02,15,16,52,10.50
2015,02,15,16,53,10.50
2015,02,15,16,54,10.50
2015,02,15,16,55,10.50
2015,02,15,16,56,10.50
2015,02,15,16,57,10.50
2015,02,15,16,58,10.50
2015,02,15,16,59,10.50
2015,02,15,17,00,10.50
2015,02,15,17,01,10.40
2015,02,15,17,02,10.40
2015,02,15,17,03,10.40
2015,02,15,17,04,10.40
2015,02,15,17,05,10.40
2015,02,15,17,06,10.40
2015,02,15,17,07,10.40
2015,02,15,17,08,10.30
2015,02,15,17,09,10.30
2015,02,15,17,10,10.30
2015,02,15,17,11,10.20
2015,02,15,17,12,10.20
2015,02,15,17,13,10.10
2015,02,15,17,14,10.10
2015,02,15,17,15,10.00
2015,02,15,17,16,10.00
2015,02,15,17,17,9.90
2015,02,15,17,18,9.90
2015,02,15,17,19,9.80
2015,02,15,17,20,9.80
2015,02,15,17,21,9.80
2015,02,15,17,22,9.70
2015,02,15,17,23,9.70
2015,02,15,17,24,9.60
2015,02,15,17,25,9.60
2015,02,15,17,26,9.50
2015,02,15,17,27,9.50
2015,02,15,17,28,9.40
2015,02,15,17,29,9.40
2015,02,15,17,30,9.30
2015,02,15,17,31,9.20
2015,02,15,17,32,9.20
2015,02,15,17,33,9.10
2015,02,15,17,34,9.10
2015,02,15,17,35,9.00
2015,02,15,17,36,9.00
2015,02,15,17,37,8.90
2015,02,15,17,38,8.90
2015,02,15,17,39,8.80
2015,02,15,17,40,8.80
2015,02,15,17,41,8.80
2015,02,15,17,42,8.70
2015,02,15,17,43,8.70
2015,02,15,17,44,8.70
2015,02,15,17,45,8.60
2015,02,15,17,46,8.60
2015,02,15,17,47,8.50
2015,02,15,17,48,8.50
2015,02,15,17,49,8.40
2015,02,15,17,50,8.40
2015,02,15,17,51,8.40
2015,02,15,17,52,8.40
2015,02,15,17,53,8.30
2015,02,15,17,54,8.30
2015,02,15,17,55,8.30
2015,02,15,17,56,8.30
2015,02,15,17,57,8.30
2015,02,15,17,58,8.20
2015,02,15,17,59,8.20
2015,02,15,18,00,8.20
2015,02,15,18,01,8.10
2015,02,15,18,02,8.10
2015,02,15,18,03,8.10
2015,02,15,18,04,8.10
2015,02,15,18,05,8.00
2015,02,15,18,06,8.00
2015,02,15,18,07,8.00
2015,02,15,18,08,7.90
2015,02,15,18,09,7.90
2015,02,15,18,10,7.90
2015,02,15,18,11,7.90
2015,02,15,18,12,7.90
2015,02,15,18,13,7.90
2015,02,15,18,14,7.90
2015,02,15,18,15,7.90
2015,02,15,18,16,7.90
2015,02,15,18,17,7.90
2015,02,15,18,18,7.90
2015,02,15,18,19,7.90
